#timestamp,LO_Frequency,Hit,StdDev 
1621605615.7,286046999.3,N
1621605635.5,286046996.5,N
1621605655.4,286046998.1,N
1621605675.2,286047000.3,N
1621605695.1,286047002.4,N
1621605696.0,286047002.4,N
1621605715.8,286046999.7,N
1621605735.6,286047000.0,N
1621605755.5,286047000.0,N
1621605775.3,286046999.9,N
1621605795.2,286047002.7,N
1621605815.9,286047002.4,N
1621605835.7,286047002.7,N
1621605885.6,286047002.7,E
1621605895.5,286047000.1,N
1621605915.4,286046998.6,P
1621605935.2,286047001.2,N
1621605955.0,286046998.9,N
1621605955.9,286046998.9,N
1621605975.8,286046998.7,N
1621605995.6,286047000.8,N
1621606015.4,286047000.8,N
1621606035.3,286046999.1,N
1621606055.1,286046999.0,N
1621606075.9,286046996.7,Y
1621606095.7,286046995.8,P
1621606115.5,286046995.2,N
1621606135.4,286046997.5,N
1621606155.2,286046997.8,N
1621606175.0,286046998.8,N
1621606175.9,286046998.8,N
1621606195.8,286046996.6,N
1621606215.6,286046997.0,N
1621606235.5,286046997.1,N
1621606255.3,286046998.8,N
1621606275.1,286047000.1,N
1621606295.9,286046998.3,N
1621606315.7,286047000.0,N
1621606335.5,286047000.0,N
1621606355.4,286047000.8,N
1621606375.2,286047000.2,N
1621606395.1,286047000.9,N
1621606396.0,286047000.9,N
1621606415.8,286046998.2,N
1621606435.6,286047001.0,N
1621606455.5,286047000.3,N
1621606475.3,286047003.9,N
1621606495.2,286047003.0,N
1621606515.9,286047005.9,N
1621606535.7,286047005.8,N
1621606555.6,286047002.9,N
1621606575.4,286047003.0,N
1621606595.2,286047004.6,N
1621606615.1,286047005.9,N
1621606616.0,286047005.9,N
1621606635.8,286047003.1,N
1621606655.7,286047001.3,N
1621606675.5,286047002.4,N
1621606695.3,286047002.6,N
1621606715.2,286047002.5,N
1621606735.9,286047003.8,N
1621606755.7,286047003.6,N
1621606775.6,286047005.9,N
1621606795.4,286047003.5,N
1621606815.3,286047003.4,N
1621606835.1,286047004.1,N
1621606836.0,286047004.1,N
1621606855.8,286047002.9,N
1621606875.7,286047005.1,N
1621606895.5,286047005.6,N
1621606915.3,286047007.6,Y
1621606935.2,286047001.7,P
1621606955.0,286047002.5,P
1621606955.9,286047002.5,P
1621606975.8,286047004.4,Y
1621606995.6,286046998.1,P
1621607015.4,286046999.1,N
1621607035.3,286046997.7,N
1621607055.1,286046999.4,N
1621607075.8,286047000.7,N
1621607095.7,286047000.0,N
1621607115.5,286047002.4,N
1621607135.4,286046998.3,N
1621607155.2,286047001.0,N
1621607175.0,286046996.6,N
1621607175.9,286046996.6,N
1621607195.8,286046996.7,N
1621607215.6,286046997.9,N
1621607235.4,286046999.3,N
1621607255.3,286047000.5,N
1621607275.1,286047000.1,N
1621607295.9,286047001.0,N
1621607315.7,286046999.6,N
1621607335.5,286046998.9,N
1621607355.4,286046998.6,N
1621607375.2,286046999.5,N
1621607395.0,286046999.3,N
1621607395.9,286046999.3,N
1621607415.8,286046998.9,N
1621607435.6,286046998.1,N
1621607455.5,286046999.3,N
1621607475.3,286046999.0,N
1621607495.1,286046996.5,N
1621607515.9,286046999.2,N
1621607535.7,286046998.1,N
1621607555.6,286046996.5,N
1621607575.4,286046999.6,N
1621607595.2,286046999.6,N
1621607615.1,286046998.4,N
1621607616.0,286046998.4,N
1621607635.8,286047000.1,N
1621607655.7,286047002.5,N
1621607675.5,286046999.7,N
1621607695.3,286046998.4,N
1621607715.2,286046999.4,N
1621607735.0,286046999.0,N
1621607735.9,286046999.0,N
1621607755.8,286046997.9,N
1621607775.6,286046999.2,N
1621607795.4,286047002.8,N
1621607815.3,286047002.8,N
1621607835.1,286047000.5,N
1621607855.8,286046998.8,N
1621607875.7,286047000.0,N
1621607895.5,286047002.7,N
1621607915.4,286046999.7,N
1621607935.2,286047000.2,N
1621607955.0,286047001.2,N
1621607955.9,286047001.2,N
1621607975.8,286047000.3,N
1621607995.6,286047002.8,N
1621608015.4,286046999.9,N
1621608035.3,286047002.3,N
1621608055.1,286047000.6,N
1621608075.9,286047000.5,N
1621608095.7,286046998.9,N
1621608115.5,286046999.1,N
1621608135.4,286046997.7,N
1621608155.2,286047000.7,N
1621608175.0,286047002.1,N
1621608175.9,286047002.1,N
1621608195.8,286047001.3,N
1621608215.6,286047002.1,N
1621608235.5,286047002.3,N
1621608255.3,286047002.6,N
1621608275.1,286047000.2,N
1621608295.9,286046999.7,N
1621608315.7,286047000.2,N
1621608335.6,286047000.6,N
1621608355.4,286046999.1,N
1621608375.2,286046995.0,Y
1621608395.1,286046995.9,P
1621608396.0,286046995.9,N
1621608415.8,286046996.2,N
1621608435.7,286046997.9,N
1621608455.5,286046997.1,N
1621608475.3,286046997.1,N
1621608495.2,286046997.0,N
1621608515.0,286046996.8,N
1621608515.9,286046996.8,N
1621608535.7,286046997.9,N
1621608555.6,286046997.1,N
1621608575.4,286047001.2,N
1621608595.3,286047000.8,N
1621608615.1,286047001.2,N
1621608616.0,286047001.2,N
1621608635.8,286046998.1,N
1621608655.7,286046999.1,N
1621608675.5,286046998.2,N
1621608695.3,286047000.7,N
1621608715.2,286046998.5,N
1621608735.0,286046998.7,N
1621608735.9,286046998.7,N
1621608755.8,286047001.0,N
1621608775.6,286047000.3,N
1621608795.4,286047000.5,N
1621608815.3,286046998.7,N
1621608835.1,286046998.3,N
1621608855.8,286046998.8,N
1621608875.7,286046998.6,N
1621608895.5,286046997.1,N
1621608915.4,286046999.5,N
1621608935.2,286046999.4,N
1621608955.0,286046997.8,N
1621608955.9,286046997.8,N
1621608975.8,286046996.6,N
1621608995.6,286047000.5,N
1621609015.4,286047004.2,N
1621609035.3,286047003.8,N
1621609055.1,286047001.6,N
1621609075.9,286047000.0,N
1621609095.7,286046998.2,N
1621609115.5,286046997.2,N
1621609135.4,286046996.6,N
1621609155.2,286046998.6,N
1621609175.1,286046996.1,N
1621609176.0,286046996.1,N
1621609195.8,286046995.9,N
